Flag for Germany Weather past 2 weeks in Schorndorf, Baden-Württemberg, Germany

Now
32 °F

Passing clouds.


Feels Like: 32 °F
Forecast: 25 / 35 °F
Wind: 2 mph from South

Location: Stuttgart-Echterdingen

Current Time: Feb 1, 2015 at 12:22:47 AM

Latest Report: Feb 1, 2015 at 12:00 AM


Visibility: 19 mi

Pressure: 29.21 "Hg

Humidity: 89%

Dew point: 29 °F

Location of SchorndorfLocation

Historic Weather in Schorndorf — Graph

°F

Schorndorf temperature yesterday

Maximum temperature yesterday: 37 °F (at 4:00 PM)
Minimum temperature yesterday: 31 °F (at 1:00 AM)
Average temperature yesterday: 33 °F

Past Weeks' High & Low Weather Summary

 TemperatureHumidityPressure
High42 °F (Jan 16, 11:00 PM)99% (Jan 18, 7:00 AM)30.47 "Hg (Jan 18, 7:00 AM)
Low27 °F (Jan 19, 6:00 AM)65% (Jan 31, 4:00 PM)28.76 "Hg (Jan 30, 2:00 AM)
Average34 °F87%29.90 "Hg
* Reported Jan 16 11:00 PM — Jan 31 11:00 PM, Schorndorf, Weather by CustomWeather, © 2014

Note: Actual official high and low records may vary slightly from our data, if they occured in-between our weather recording intervals... More about our weather records

Advertising

Schorndorf weather history for previous 24 hours

 ConditionsComfort  
Time TempWeatherWind HumidityBarometerVisibility
11:00 PM
Jan 31
32 °FPassing clouds.2 mph88%29.21 "Hg22 mi
9:00 PM33 °FOvercast.3 mph89%29.18 "Hg12 mi
8:00 PM34 °FLow clouds.3 mph90%29.15 "Hg9 mi
7:00 PM33 °FSnow. Low clouds.2 mph95%29.15 "Hg1 mi
6:00 PM34 °FSnow. Overcast.2 mph89%29.15 "Hg2 mi
5:00 PM37 °FOvercast.2 mph67%29.12 "Hg37 mi
4:00 PM37 °FOvercast.2 mph65%29.09 "Hg37 mi
3:00 PM37 °FOvercast.2 mph67%29.09 "Hg37 mi
2:00 PM36 °FOvercast.5 mph67%29.09 "Hg37 mi
1:00 PM36 °FOvercast.5 mph68%29.09 "Hg37 mi
12:00 PM35 °FOvercast.5 mph70%29.12 "Hg37 mi
11:00 AM34 °FOvercast.5 mph74%29.09 "Hg43 mi
9:00 AM32 °FPartly sunny.2 mph83%29.09 "Hg37 mi
8:00 AM31 °FOvercast.2 mph86%29.06 "Hg37 mi
7:00 AM31 °FOvercast.1 mph87%29.06 "Hg25 mi
6:00 AM31 °FOvercast.2 mph89%29.06 "Hg19 mi
5:00 AM32 °FOvercast.2 mph87%29.03 "Hg19 mi
3:00 AM32 °FOvercast.1 mph88%29.03 "Hg19 mi
2:00 AM31 °FOvercast.1 mph94%29.03 "Hg19 mi
1:00 AM31 °FPassing clouds.1 mph94%29.00 "Hg19 mi
12:00 AM31 °FOvercast.1 mph94%29.00 "Hg12 mi
Weather by CustomWeather, © 2014

See weather overviewHow to use our weather pages